Terminal Aerodrome Forecast
Issued by NWS Austin/San Antonio, TX

Home | Current Version | Previous Version | Text Only | Print | Product List | Glossary On
Versions: 1 2 3 4 5 6 7 8 9 10 11 12 13 14 15 16 17 18 19 20 21 22 23 24
000
FTUS44 KEWX 231400 AAA
TAFAUS
TAF AMD
KAUS 231417Z 2314/2418 21006KT P6SM SCT015
      TEMPO 2314/2315 5SM BR BKN015
     FM231600 19012KT P6SM FEW040 FEW250
     FM232100 15012KT P6SM FEW080 FEW250
     FM240800 20006KT P6SM SCT015 SCT250
     FM241600 19010KT P6SM FEW040=

USA.gov is the U.S. government's official web portal to all federal, state and local government web resources and services.